Location: Góry Miechowskie
(50.3599°N, 20.1803°E)
Time: 00:33:19
(UTC+00:00)

S-56A Canister/Altair - Pass Details

Date: 18 September 2024
Orbit: 636 x 2487 km, 38.9° (Epoch: 15 October)

Event Time Altitude Azimuth Distance (km) Brightness Sun altitude
Rises 17:51:20 0° 242° (WSW) 3,231 11.5 -11.2°
Reaches altitude 10° 17:53:43 10° 232° (SW) 2,460 10.6 -11.5°
Maximum altitude 17:58:46 31° 170° (S) 1,732 9.1 -12.3°
Enters shadow 18:03:50 16° 120° (ESE) 2,841 9.8 -13.1°
Drops below altitude 10° 18:05:43 10° 113° (ESE) 3,441 - -13.4°
Sets 18:09:42 0° 104° (ESE) 4,754 - -14.0°
